STARLINK-4396, 53637

Orbit data source: Space-Track

STARLINK-4396, 53637 is a payload satellite owned by SpaceX/Seattle (US) in LEO that was launched on Sun, 28 Aug 2022 UTC via an FALCON 9 launch vehicle from the Air Force Eastern Test Range (AFETR). Payload-class satellites include a variety of spacecraft equipped with specific instruments for various scientific and technological missions. These include communications satellites like Starlink; space stations such as the ISS; scientific satellites like the Hubble; Earth observation satellites from companies like Planet Labs, Umbra, and HawkEye 360; GPS; miniature CubeSats for education and research; and military/defense satellites.

Loading next visibility...
Identifier
53637, 2022-104BB
Orbit
LEO
Country
Flag of USUS
Related business
Manufacturer
SpaceX/Seattle
Mission
Operational Commercial Communications
Bus & Motor
STARLINK, Unknown motor
Mass
300 kg wet, ~290 kg dry
Launch date (UTC)
2022-08-28 (3 years ago)
Launch vehicle
FALCON 9
Launch site
Air Force Eastern Test Range (AFETR)
Object type
Payload
Rocket body
Debris
Shape & HBR
Box + 1 Pan, 10.1 m
Radar Cross Section
13.562 m², Large (>1 m²)

Expand to show TLE details & history
Last TLE update: 1 day ago

TLE from 1 day ago
0 STARLINK-4396
1 53637U 22104BB  25286.64384968  .00000786  00000-0  67507-4 0  9994
2 53637  53.2108 164.4195 0002122  85.6748 274.4487 15.08838319174026
Epoch: 2025-10-13T15:27Z
TLE epoch observation values (Epoch: 2025-10-13T15:27:08.612Z)
Latitude
0.00002°
Longitude
-89.81004°
Altitude
540.532 km
Speed
7.593 km/s
True Right ascension
10h 57m 40s
True Declination
0° 00' 00"
Sunlit
Object was in daylight at epoch
Visualization orbit readout
Latitude
Unknown
Longitude
Unknown
Altitude
Unknown
Speed
Unknown
Apparent Right ascension
Unknown
Apparent Declination
Unknown
Sunlit
N/A
Visualization observer readout
Local Sidereal Time
09:57:36
Azimuth
Unknown
Elevation
Unknown
Doppler factor
Unknown
Orbital elements
Apogee altitude
541.463 km
Perigee altitude
538.526 km
Semi-major axis
6,918.132 km
Eccentricity
0.00021
Inclination
53.2108°
RAAN
164.4195°
Arg. of periapsis
85.6748°
True anomaly
274.42446°
Mean anomaly
274.4487°
Eccentric anomaly
274.43658°
Mean motion
3.7719 °/min
Orbital period
95.44 mins
BSTAR
0.000067507
Loading maneuver chart data...
Computing Atmospheric mass density...
Loading historical data...
Loading historical data...
Loading historical data...
Loading historical data...
Loading historical data...
Loading historical data...
Loading historical data...

Documentation

Showing up to 5 results
|